sat.trackr.live / text

‹ back to catalog

STARLINK-34105

NORAD 63977 · 2025-099AB

PAYLOAD ACTIVE UNKNOWN

§ Identity

Operator
Country
US
Launch date
2025-05-13
Launch site
AFETR
Launch vehicle
Mass (kg)
RCS (m²)

Purposes: comms

External: N2YO · Heavens-Above · Gunter

§ Orbital elements

Epoch: 2026-05-25T04:15:31.421664Z

Period
94.27 min
Inclination
43.0022°
Eccentricity
0.0000817
Mean motion
15.27591186 rev/d
Perigee alt
482.5 km
Apogee alt
483.6 km
Semi-major
6,861.2 km
B*
5.9506e-4
RAAN
100.8252°
Arg perigee
277.7046°
Mean anomaly
82.3713°
Rev number
5,898

§ Raw data

STARLINK-341051 63977U 25099AB  26145.17744701  .00016154  00000+0  59506-3 0  99902 63977  43.0022 100.8252 0000817 277.7046  82.3713 15.27591186 58981

JSON: /api/v1/satellites/63977 · /tle

For live sub-satellite position, see the globe view (requires WebGL).

§ Visibility from observer

Set your observer location to see the next 7 days of passes ≥ 10°. The values pass through the URL so the page stays shareable.

No JS? Fill the form by hand. The geolocation button needs JavaScript.